Change the Weather History Date:

Monday, April 8, 2013

  Actual Average Record
Temperature  
Mean Temperature 70 °F 61 °F  
Max Temperature 80 °F 73 °F 88 °F (1978)
Min Temperature 60 °F 49 °F 29 °F (1971)
Degree Days  
Heating Degree Days 0 6  
Month to date heating degree days 54 50  
Since 1 July heating degree days 2325 2488  
Cooling Degree Days 5 1  
Month to date cooling degree days 5 8  
Year to date cooling degree days 14 25  
Growing Degree Days 19 (Base 50)    
Moisture  
Dew Point 55 °F    
Average Humidity 65    
Maximum Humidity 84    
Minimum Humidity 45    
Precipitation  
Precipitation 0.00 in 0.13 in 4.20 in (1983)
Month to date precipitation 0.90 1.02  
Year to date precipitation 19.77 16.58  
Snow  
Snow 0.00 in - - ()
Month to date snowfall 0.0  
Since 1 July snowfall 0.9  
Snow Depth 0.00 in    
Sea Level Pressure  
Sea Level Pressure 30.05 in    
Wind  
Wind Speed 7 mph (SSE)    
Max Wind Speed 16 mph    
Max Gust Speed 21 mph    
Visibility 8 miles    
Events      
T = Trace of Precipitation, MM = Missing Value Source: NWS Daily Summary

Daily Weather History Graph

Daily Weather History Graph

Search for Another Location

Airport or City:

Trip Planner

Search our weather history database for the weather conditions in past years. The results will help you decide how hot, cold, wet, or windy it might be!

Date:

Astronomy

Apr. 08, 2013 Rise Set
Actual Time 6:25 AM CDT 7:12 PM CDT
Civil Twilight 6:00 AM CDT 7:37 PM CDT
Nautical Twilight 5:30 AM CDT 8:07 PM CDT
Astronomical Twilight 5:00 AM CDT 8:38 PM CDT
Moon 5:10 AM CDT (4/8) 5:49 PM CDT (4/8)
Length of Visible Light 13h 37m
Length of Day
12h 47m
Waning Crescent, 3% of the Moon is Illuminated
Apr 8
Waning Crescent
Apr 10
New
Apr 18
First Quarter
Apr 25
Full
May 2
Last Quarter

Hourly Weather History & Observations

Time (CDT) Temp. Dew Point Humidity Pressure Visibility Wind Dir Wind Speed Gust Speed Precip Events Conditions
12:53 AM 63.0 °F 53.1 °F 70% 30.05 in 8.0 mi South 5.8 mph - N/A   Clear
1:53 AM 61.0 °F 54.0 °F 78% 30.04 in 8.0 mi South 4.6 mph - N/A   Clear
2:53 AM 62.1 °F 57.0 °F 84% 30.02 in 8.0 mi South 6.9 mph - N/A   Overcast
3:53 AM 62.1 °F 55.0 °F 78% 30.02 in 9.0 mi South 4.6 mph - N/A   Mostly Cloudy
4:53 AM 62.1 °F 55.0 °F 78% 30.03 in 9.0 mi SSW 3.5 mph - N/A   Overcast
5:53 AM 61.0 °F 55.0 °F 81% 30.04 in 8.0 mi Calm Calm - N/A   Mostly Cloudy
6:53 AM 60.1 °F 55.0 °F 83% 30.06 in 6.0 mi Calm Calm - N/A   Haze
7:53 AM 61.0 °F 55.0 °F 81% 30.09 in 6.0 mi ESE 3.5 mph - N/A   Haze
8:53 AM 64.9 °F 57.0 °F 75% 30.09 in 6.0 mi East 3.5 mph - N/A   Haze
9:53 AM 71.1 °F 57.9 °F 63% 30.09 in 7.0 mi SSE 10.4 mph 16.1 mph N/A   Overcast
10:22 AM 71.6 °F 57.2 °F 60% 30.11 in 7.0 mi SSE 9.2 mph - N/A   Overcast
10:53 AM 73.9 °F 57.0 °F 55% 30.09 in 8.0 mi SSE 11.5 mph - N/A   Mostly Cloudy
11:53 AM 73.9 °F 55.9 °F 53% 30.09 in 8.0 mi SSE 13.8 mph - N/A   Overcast
12:53 PM 77.0 °F 55.9 °F 48% 30.06 in 9.0 mi SSE 10.4 mph 18.4 mph N/A   Mostly Cloudy
1:53 PM 77.0 °F 55.0 °F 47% 30.06 in 10.0 mi South 8.1 mph - N/A   Overcast
2:53 PM 78.1 °F 55.9 °F 46% 30.04 in 9.0 mi SSE 10.4 mph 18.4 mph N/A   Overcast
3:53 PM 78.1 °F 55.0 °F 45% 30.01 in 9.0 mi SSE 6.9 mph 18.4 mph N/A   Mostly Cloudy
4:53 PM 78.1 °F 55.0 °F 45% 30.00 in 9.0 mi South 10.4 mph - N/A   Mostly Cloudy
5:53 PM 78.1 °F 55.0 °F 45% 30.00 in 10.0 mi South 10.4 mph - N/A   Mostly Cloudy
6:53 PM 75.9 °F 54.0 °F 46% 30.01 in 9.0 mi South 10.4 mph - N/A   Clear
7:53 PM 73.0 °F 55.0 °F 53% 30.02 in 10.0 mi SSE 4.6 mph - N/A   Clear
8:53 PM 71.1 °F 55.0 °F 57% 30.04 in 10.0 mi SSE 6.9 mph - N/A   Clear
9:53 PM 70.0 °F 55.0 °F 59% 30.04 in 9.0 mi South 5.8 mph - N/A   Clear
10:53 PM 69.1 °F 55.0 °F 61% 30.04 in 9.0 mi South 6.9 mph - N/A   Clear
11:53 PM 68.0 °F 55.0 °F 63% 30.04 in 9.0 mi South 8.1 mph - N/A   Clear